Tracking 18980 objects as of 18-Feb-2018
HD Live streaming from Space Station
objects crossing your sky now

SHIYAN-7 (SY-7)

Track SHIYAN-7 (SY-7) now!
10-day predictions
SHIYAN-7 (SY-7) is classified as:


NORAD ID: 39208
Int'l Code: 2013-037A
Perigee: 666.9 km
Apogee: 681.1 km
Inclination: 98.0 °
Period: 98.1 minutes
Semi major axis: 7045 km
RCS: Unknown
Launch date: July 19, 2013
Source: People's Republic of China (PRC)
Launch site: Taiyaun Space Center, China (TSC)

SHIYAN 7 is equipped with a system for testing a manipulator arm to capture other space objects.
aabbcc
Your satellite tracking list
Your tracking list is empty




NASA's NSSDC Master Catalog

Two Line Element Set (TLE):
1 39208U 13037A   18048.92567562 +.00000078 +00000-0 +21832-4 0  9994
2 39208 097.9968 059.5990 0010107 090.4471 269.7894 14.68180489245615
Source of the keplerian elements: AFSPC